[[{"header":{"parameterUnit":"m.s-1","parameterCategory":1,"la1":30.2991,"la2":30.254,"lo1":-89.0895,"lo2":-89.0444,"dy":0.0017,"dx":0.0017,"nx":28,"ny":28,"refTime":"2023-10-13T03:00:00:Z","depth":0,"parameterNumber":2,"parameterNumberName":"U-component_of_WINDS"},"data":[0,0,0,0,0,0,0,0,0,0,0,0,0,0,0,0,0,0,0,0,0,0,0,0,0,0,0,0,0,0,0,0,0,0,0,0,0,0,0,0,0,0,0,0,0,0,0,0,0,0,0,0,0,0,0,0,0,0,-2.3221,-2.3221,0,-2.3227,-2.3227,-2.3227,-2.3135,-2.3132,-2.313,-2.3128,-2.3135,-2.3138,-2.314,0,0,0,0,0,0,0,0,0,0,0,0,0,-2.313,-2.3132,-2.3221,-2.3221,-2.3221,-2.3227,-2.3227,-2.3227,-2.3135,-2.3132,-2.3129,-2.3126,-2.3135,-2.3137,-2.3141,0,0,0,0,0,0,0,0,0,0,0,0,0,-2.3156,-2.3133,-2.3221,-2.3176,-2.3172,-2.3227,-2.3227,-2.3227,-2.3136,-2.3132,-2.3128,-2.3125,-2.3134,-2.3137,-2.3141,-2.3239,0,0,-2.3153,-2.3154,0,0,0,0,0,0,0,0,-2.3155,-2.316,-2.3182,-2.3179,-2.3175,-2.3176,-2.3198,-2.3231,-2.3137,-2.315,-2.3127,-2.3123,-2.3152,-2.3154,-2.3163,-2.324,-2.324,-2.3153,-2.3155,-2.3157,-2.3158,0,0,0,0,0,0,0,-2.3153,-2.3159,-2.3223,-2.3183,-2.3178,-2.3156,-2.3155,-2.3204,-2.3172,-2.3148,-2.3142,-2.3143,-2.3149,-2.316,-2.3163,-2.324,-2.3153,-2.3156,-2.3159,-2.316,-2.3397,-2.3401,0,0,0,0,0,0,-2.3157,-2.3158,-2.3223,-2.3223,-2.3155,-2.316,-2.316,-2.3179,-2.3171,-2.3166,-2.3147,-2.3139,-2.3155,-2.3159,-2.3163,-2.3278,-2.3157,-2.316,-2.3163,-2.3393,-2.3398,-2.3402,0,0,0,0,0,0,-2.3156,-2.3164,-2.3223,-2.3189,-2.3195,-2.3166,-2.3189,-2.3182,-2.3192,-2.317,-2.3164,-2.3164,-2.3153,-2.3158,-2.3221,-2.3277,-2.3162,-2.3166,-2.3388,-2.3395,-2.34,-2.3508,0,0,0,0,0,0,-2.3154,-2.3164,-2.3201,-2.319,-2.3197,-2.3281,-2.3192,-2.3184,-2.3199,-2.3189,-2.3184,-2.318,-2.315,-2.3216,-2.3225,-2.328,-2.3169,-2.3383,-2.3391,-2.3398,-2.35,-2.3517,-2.3532,0,0,0,0,0,-2.3151,-2.3232,-2.3204,-2.3212,-2.3242,-2.3284,-2.3288,-2.3252,-2.3204,-2.3241,-2.3226,-2.318,-2.3269,-2.3223,-2.3232,-2.329,-2.338,-2.3389,-2.3398,-2.3492,-2.3514,-2.3532,0,0,0,0,0,0,-2.3251,-2.323,-2.3198,-2.3278,-2.3284,-2.3268,-2.3314,-2.3275,-2.3295,-2.3285,-2.324,-2.3239,-2.331,-2.3306,-2.3255,-2.3384,-2.3316,-2.3327,-2.3385,-2.3405,-2.3421,-2.3421,-2.3172,0,0,0,0,0,-2.3282,-2.3318,-2.3297,-2.337,-2.3374,-2.3344,-2.3361,-2.3332,-2.3336,-2.3338,-2.3328,-2.3334,-2.3363,-2.3383,-2.3409,-2.3498,-2.3496,-2.3542,-2.3558,-2.3572,-2.3582,-2.3629,-2.3649,-2.3432,-2.3432,-2.3432,0,0,-2.3348,-2.334,-2.3365,-2.3389,-2.339,-2.3428,-2.3346,-2.339,-2.3418,-2.3345,-2.3404,-2.3397,-2.34,-2.3477,-2.351,-2.3476,-2.3642,-2.3583,-2.3594,-2.3597,-2.364,-2.3661,-2.3679,-2.3438,-2.3437,-2.3436,0,0,-2.3486,-2.3484,-2.3544,-2.3546,-2.3548,-2.3527,-2.3542,-2.3532,-2.3525,-2.3583,-2.3529,-2.3561,-2.3612,-2.3617,-2.3626,-2.3765,-2.3723,-2.3775,-2.3861,-2.3907,-2.3924,-2.3939,-2.3989,-2.4007,-2.3785,-2.3785,-2.3786,0,-2.3567,-2.3622,-2.358,-2.3627,-2.3639,-2.3574,-2.3634,-2.3638,-2.3649,-2.3659,-2.362,-2.3682,-2.368,-2.3757,-2.3791,-2.38,-2.3815,-2.3776,-2.3924,-2.3939,-2.3952,-2.4,-2.4018,-2.3792,-2.3791,-2.379,-2.379,0,-2.3721,-2.376,-2.3808,-2.3819,-2.3837,-2.389,-2.3857,-2.3879,-2.3849,-2.3833,-2.3893,-2.3887,-2.3911,-2.3926,-2.3898,-2.3999,-2.3978,-2.3932,-2.3863,-2.398,-2.4024,-2.4041,-2.3801,-2.3798,-2.3797,-2.3795,0,0,-2.3925,-2.3911,-2.393,-2.3934,-2.393,-2.3959,-2.401,-2.4032,-2.4052,-2.4061,-2.4103,-2.4147,-2.4104,-2.4115,-2.4086,-2.4126,-2.4237,-2.4075,-2.4075,-2.4106,-2.4348,-2.4383,-2.4405,-2.4208,-2.4211,-2.4214,-2.4348,0,-2.406,-2.4145,-2.4108,-2.4197,-2.4232,-2.417,-2.4213,-2.4216,-2.4202,-2.423,-2.4214,-2.4246,-2.4187,-2.4193,-2.423,-2.4215,-2.4285,-2.4205,-2.4247,-2.4249,-2.4249,-2.4427,-2.4465,-2.4592,-2.4365,-2.4368,-2.437,0,-2.4229,-2.4244,-2.4337,-2.4326,-2.434,-2.438,-2.4397,-2.4424,-2.4425,-2.4412,-2.4423,-2.4385,-2.4433,-2.4364,-2.443,-2.4377,-2.4392,-2.4387,-2.4391,-2.4394,-2.4317,-2.4437,-2.4631,-2.4651,-2.4396,-2.4394,-2.4392,0,-2.4369,-2.4412,-2.4473,-2.4478,-2.4468,-2.4497,-2.4494,-2.4492,-2.4508,-2.4522,-2.4532,-2.4552,-2.4564,-2.4581,-2.4549,-2.4501,-2.462,-2.4548,-2.4611,-2.4612,-2.464,-2.4639,-2.4841,-2.4648,-2.4648,-2.4648,-2.4647,0,-2.4524,-2.4583,-2.4536,-2.4573,-2.4637,-2.4594,-2.4659,-2.4649,-2.4648,-2.4682,-2.463,-2.4663,-2.4618,-2.4648,-2.4623,-2.4682,-2.4688,-2.4679,-2.4671,-2.4684,-2.4685,-2.4694,-2.4684,-2.4653,-2.4652,-2.4651,-2.465,0,-2.4692,-2.4662,-2.4724,-2.4709,-2.4706,-2.4754,-2.4741,-2.4775,-2.4756,-2.4801,-2.4809,-2.478,-2.4811,-2.478,-2.4811,-2.4794,-2.4873,-2.4853,-2.4873,-2.4867,-2.4933,-2.4927,-2.5148,-2.5175,-2.4965,-2.4967,-2.4968,0,-2.4793,-2.4837,-2.4826,-2.4845,-2.4845,-2.4876,-2.4891,-2.485,-2.4868,-2.4873,-2.4907,-2.4934,-2.4953,-2.5007,-2.4989,-2.5011,-2.4992,-2.5067,-2.4995,-2.5006,-2.4994,-2.4992,-2.4996,-2.5083,-2.5085,-2.5087,-2.5089,0,-2.4977,-2.496,-2.4983,-2.5002,-2.5021,-2.5034,-2.5042,-2.5061,-2.5018,-2.5041,-2.5073,-2.5088,-2.5118,-2.5146,-2.5162,-2.5159,-2.5118,-2.5111,-2.5127,-2.5141,-2.5151,-2.5147,-2.4914,-2.5107,-2.5105,-2.5104,-2.5103,-2.5102,-2.5115,-2.5151,-2.5148,-2.5176,-2.5178,-2.5187,-2.5218,-2.5203,-2.5228,-2.5249,-2.5223,-2.5262,-2.5261,-2.5279,-2.5281,-2.5311,-2.5279,-2.5302,-2.5308,-2.5315,-2.5325,-2.5146,-2.5314,-2.5313,-2.5313,-2.5312,-2.5312,0,-2.5296,-2.5291,-2.5317,-2.533,-2.5352,-2.5309,-2.5316,-2.5338,-2.5372,-2.5375,-2.5395,-2.5431,-2.5457,-2.5441,-2.5463,-2.549,-2.5471,-2.5497,-2.5496,-2.5496,-2.5352,-2.5336,-2.5512,-2.5512,-2.5512,-2.5512,-2.5512,-2.5512,-2.5393,-2.5451,-2.5434,-2.5493,-2.5487,-2.5524,-2.5532,-2.554,-2.5542,-2.5584,-2.5605,-2.5594,-2.5589,-2.561,-2.5633,-2.5627,-2.5638,-2.5671,-2.5659,-2.5525,-2.5506,-2.5487,-2.5472,-2.5674,-2.5674,-2.58,-2.5801,-2.5802]},{"header":{"parameterUnit":"m.s-1","parameterCategory":1,"la1":30.2991,"la2":30.254,"lo1":-89.0895,"lo2":-89.0444,"dy":0.0017,"dx":0.0017,"nx":28,"ny":28,"refTime":"2023-10-13T03:00:00:Z","depth":0,"parameterNumber":3,"parameterNumberName":"V-component_of_WINDS"},"data":[0,0,0,0,0,0,0,0,0,0,0,0,0,0,0,0,0,0,0,0,0,0,0,0,0,0,0,0,0,0,0,0,0,0,0,0,0,0,0,0,0,0,0,0,0,0,0,0,0,0,0,0,0,0,0,0,0,0,-4.0161,-4.0162,0,-4.0249,-4.025,-4.0251,-4.0212,-4.021,-4.0208,-4.0206,-4.0293,-4.0297,-4.0302,0,0,0,0,0,0,0,0,0,0,0,0,0,-3.9953,-3.9957,-4.016,-4.0162,-4.0163,-4.0249,-4.025,-4.0252,-4.0212,-4.021,-4.0207,-4.0205,-4.0292,-4.0297,-4.0302,0,0,0,0,0,0,0,0,0,0,0,0,0,-4.0042,-3.9958,-4.016,-4.0154,-4.0154,-4.0249,-4.0251,-4.0252,-4.0213,-4.021,-4.0206,-4.0203,-4.029,-4.0296,-4.0303,-4.0409,0,0,-4.0323,-4.0326,0,0,0,0,0,0,0,0,-4.0037,-4.005,-4.0154,-4.0154,-4.0155,-4.0216,-4.0209,-4.0304,-4.0214,-4.019,-4.0206,-4.0202,-4.027,-4.0278,-4.0302,-4.0413,-4.0416,-4.0323,-4.0327,-4.033,-4.0332,0,0,0,0,0,0,0,-4.0031,-4.0046,-4.0195,-4.0155,-4.0156,-4.0145,-4.0154,-4.0227,-4.0247,-4.0192,-4.019,-4.0201,-4.027,-4.0296,-4.0303,-4.0418,-4.0323,-4.0329,-4.0333,-4.0336,-4.0619,-4.0622,0,0,0,0,0,0,-4.0026,-4.0041,-4.0193,-4.0198,-4.0087,-4.0151,-4.0162,-4.02,-4.0246,-4.0251,-4.0204,-4.0199,-4.0286,-4.0296,-4.0306,-4.0433,-4.033,-4.0336,-4.034,-4.0615,-4.062,-4.0624,0,0,0,0,0,0,-4.0021,-4.004,-4.0189,-4.0119,-4.0137,-4.0158,-4.0202,-4.0203,-4.0229,-4.0255,-4.0258,-4.0227,-4.0284,-4.0297,-4.0384,-4.0435,-4.0339,-4.0345,-4.0611,-4.0617,-4.0622,-4.0687,0,0,0,0,0,0,-4.0016,-4.0038,-4.008,-4.012,-4.0141,-4.0266,-4.0205,-4.0207,-4.0241,-4.0235,-4.0277,-4.0281,-4.0282,-4.0374,-4.039,-4.0443,-4.035,-4.0606,-4.0614,-4.062,-4.068,-4.0694,-4.0706,0,0,0,0,0,-4.0008,-4.0094,-4.0082,-4.01,-4.0194,-4.0269,-4.0281,-4.0282,-4.0245,-4.0286,-4.0303,-4.028,-4.0427,-4.0383,-4.0401,-4.0456,-4.0603,-4.0612,-4.0619,-4.0675,-4.0691,-4.0705,0,0,0,0,0,0,-4.0057,-4.0099,-4.0086,-4.0188,-4.0226,-4.0262,-4.0314,-4.0299,-4.0347,-4.034,-4.0337,-4.0347,-4.0436,-4.0455,-4.0405,-4.0561,-4.0509,-4.0522,-4.0545,-4.0561,-4.0574,-4.0567,-4.0356,0,0,0,0,0,-4.008,-4.014,-4.0172,-4.0258,-4.0278,-4.0293,-4.0326,-4.0323,-4.0362,-4.0377,-4.04,-4.0437,-4.0491,-4.0527,-4.0579,-4.0683,-4.0691,-4.0729,-4.0742,-4.0752,-4.0763,-4.0818,-4.0836,-4.065,-4.065,-4.065,0,0,-4.0128,-4.0158,-4.0195,-4.0269,-4.0298,-4.0358,-4.0307,-4.0373,-4.0417,-4.0387,-4.047,-4.0488,-4.0529,-4.0625,-4.0668,-4.0643,-4.0816,-4.0763,-4.0771,-4.0776,-4.0828,-4.0846,-4.0862,-4.0656,-4.0655,-4.0654,0,0,-4.0245,-4.0274,-4.0349,-4.0379,-4.0424,-4.0433,-4.0451,-4.0491,-4.0502,-4.0586,-4.0564,-4.0616,-4.071,-4.074,-4.0768,-4.0897,-4.0877,-4.0913,-4.0979,-4.1034,-4.1048,-4.1061,-4.1106,-4.1123,-4.0923,-4.0924,-4.0924,0,-4.0298,-4.0389,-4.0389,-4.0457,-4.049,-4.0466,-4.0541,-4.057,-4.0629,-4.0652,-4.0623,-4.0741,-4.0767,-4.0869,-4.09,-4.0923,-4.0943,-4.0908,-4.1046,-4.1059,-4.1071,-4.1115,-4.1132,-4.0928,-4.0927,-4.0927,-4.0926,0,-4.0451,-4.0515,-4.057,-4.0629,-4.0667,-4.0739,-4.0748,-4.0788,-4.0781,-4.0793,-4.0878,-4.0909,-4.0966,-4.099,-4.0984,-4.1091,-4.1074,-4.1046,-4.0995,-4.1093,-4.1134,-4.115,-4.0934,-4.0932,-4.0931,-4.093,0,0,-4.0602,-4.066,-4.068,-4.0706,-4.0754,-4.0802,-4.0872,-4.0929,-4.0962,-4.1004,-4.1061,-4.1142,-4.1116,-4.1147,-4.1145,-4.1192,-4.1292,-4.1158,-4.1159,-4.1182,-4.1411,-4.1431,-4.145,-4.1279,-4.1282,-4.1285,-4.1407,0,-4.0722,-4.0846,-4.0848,-4.0961,-4.1019,-4.0997,-4.1057,-4.1093,-4.1106,-4.1156,-4.1169,-4.1226,-4.1189,-4.1207,-4.1254,-4.127,-4.1337,-4.1261,-4.1331,-4.1334,-4.1322,-4.1472,-4.1494,-4.1608,-4.1423,-4.1425,-4.1427,0,-4.0879,-4.0927,-4.1046,-4.1085,-4.1109,-4.1164,-4.1216,-4.1265,-4.1304,-4.131,-4.1345,-4.1335,-4.1405,-4.1351,-4.1447,-4.1395,-4.1423,-4.1436,-4.144,-4.1446,-4.1387,-4.1482,-4.1644,-4.1661,-4.1452,-4.145,-4.1449,0,-4.0976,-4.107,-4.1153,-4.1176,-4.1224,-4.1263,-4.1284,-4.132,-4.1354,-4.14,-4.1421,-4.1474,-4.1503,-4.1543,-4.1547,-4.1508,-4.1643,-4.159,-4.1649,-4.1649,-4.1678,-4.1676,-4.1847,-4.1697,-4.1697,-4.1697,-4.1696,0,-4.111,-4.1184,-4.1198,-4.1249,-4.133,-4.1331,-4.1412,-4.1429,-4.1462,-4.1515,-4.1499,-4.1549,-4.1551,-4.1602,-4.1606,-4.1684,-4.1697,-4.1703,-4.1703,-4.1705,-4.1704,-4.1723,-4.1715,-4.1701,-4.17,-4.1699,-4.1698,0,-4.1233,-4.1245,-4.1335,-4.1373,-4.1384,-4.1442,-4.1474,-4.1522,-4.1534,-4.1602,-4.1617,-4.1635,-4.1694,-4.1703,-4.1771,-4.1774,-4.1868,-4.1859,-4.1855,-4.1854,-4.1912,-4.1906,-4.2102,-4.2127,-4.1961,-4.1962,-4.1963,0,-4.1318,-4.1374,-4.1418,-4.1453,-4.1477,-4.1534,-4.1569,-4.1572,-4.1609,-4.1657,-4.17,-4.1758,-4.1804,-4.1899,-4.1918,-4.197,-4.1963,-4.2028,-4.197,-4.197,-4.1963,-4.196,-4.1965,-4.2038,-4.204,-4.2042,-4.2043,0,-4.1466,-4.147,-4.1521,-4.1576,-4.1618,-4.1661,-4.1701,-4.173,-4.1738,-4.178,-4.1841,-4.1877,-4.1948,-4.2005,-4.2057,-4.2078,-4.2062,-4.2061,-4.2077,-4.2079,-4.2074,-4.2077,-4.1885,-4.2056,-4.2055,-4.2054,-4.2053,-4.2053,-4.1572,-4.1621,-4.166,-4.1718,-4.1749,-4.1786,-4.1834,-4.1852,-4.1903,-4.1962,-4.196,-4.2027,-4.2063,-4.2132,-4.2156,-4.2208,-4.2186,-4.221,-4.2216,-4.2222,-4.2228,-4.2067,-4.2217,-4.2217,-4.2216,-4.2216,-4.2216,0,-4.172,-4.1744,-4.1797,-4.1854,-4.19,-4.1882,-4.1925,-4.1964,-4.2024,-4.206,-4.2106,-4.2176,-4.2232,-4.2254,-4.2309,-4.2345,-4.2339,-4.236,-4.2357,-4.2362,-4.2244,-4.2224,-4.2364,-4.2364,-4.2363,-4.2363,-4.2363,-4.2363,-4.1802,-4.1884,-4.1892,-4.1988,-4.2011,-4.2078,-4.2104,-4.2138,-4.2167,-4.2246,-4.2293,-4.2308,-4.2338,-4.2395,-4.2444,-4.2449,-4.247,-4.2493,-4.2495,-4.2385,-4.237,-4.2356,-4.2337,-4.2498,-4.2498,-4.2609,-4.261,-4.261]}]]